Regional Weather Roundup
Issued by NWS

Home | Current Version | Previous Version | Graphics & Text | Print | Product List | Glossary On
Versions: 1 2 3 4 5 6 7 8 9 10 11 12 13 14 15 16 17 18 19 20 21 22 23 24 25 26 27 28 29 30 31 32 33 34 35 36 37 38 39 40 41 42 43 44 45 46 47 48 49 50
000
ASUS43 KOAX 101002
RWRNE

WEATHER ROUNDUP FOR NEBRASKA
NATIONAL WEATHER SERVICE OMAHA NE
400 AM CST WED FEB 10 2016

NOTES: SATELLITE DATA IS BEING USED TO AUGMENT CLOUD COVER ABOVE
       12000 FEET.
       "FAIR" INDICATES FEW OR NO CLOUDS BELOW 12,000 FEET WITH NO
       SIGNIFICANT WEATHER AND/OR OBSTRUCTIONS TO VISIBILITY.

  * THESE STATIONS DO NOT REPORT WEATHER SUCH AS RAIN...SNOW OR FOG.

NEZ001>004-019>022-054>056-101100-
NEBRASKA PANHANDLE

CITY           SKY/WX    TMP DP  RH WIND       PRES   REMARKS
SCOTTSBLUFF    CLOUDY    30  25  81 NW8       30.07F WCI  22
ALLIANCE       CLEAR     32  24  72 W16       30.02F WCI  21
CHADRON        CLEAR     31  24  75 W3        30.02F
KIMBALL        CLOUDY    33  23  66 W18       30.10F WCI  22
SIDNEY         CLOUDY    36  23  59 W14       30.09F WCI  27
$$

NEZ057>060-069>072-079>082-101100-
SOUTHWEST NEBRASKA

CITY           SKY/WX    TMP DP  RH WIND       PRES   REMARKS
NORTH PLATTE   CLOUDY    25  21  85 NW9       30.01F WCI  15
IMPERIAL       CLEAR     35  24  64 W15       30.05F WCI  25
LEXINGTON      CLOUDY    25  21  86 W5        30.02F WCI  19
MCCOOK         CLEAR     31  26  82 W12       30.05F WCI  22
$$

NEZ005>010-023>029-035>040-094-101100-
NORTH CENTRAL NEBRASKA

CITY           SKY/WX    TMP DP  RH WIND       PRES   REMARKS
VALENTINE      CLEAR     32  28  85 W12       29.92F WCI  23
AINSWORTH      CLEAR     31  29  92 SW8       29.91F WCI  23
BROKEN BOW     CLEAR     31  27  85 W12       29.97F WCI  22
ORD            CLEAR     24  21  88 CALM      29.96F
$$

NEZ041-046>049-061>064-073>077-083>087-101100-
SOUTH CENTRAL NEBRASKA

CITY           SKY/WX    TMP DP  RH WIND       PRES   REMARKS
GRAND ISLAND   CLOUDY    25  22  88 SE5       30.02S WCI  19
AURORA         CLOUDY    26  21  83 S9        30.02F WCI  16
HASTINGS       PTCLDY    28  22  78 SW10      30.00F WCI  19
HEBRON         CLOUDY    28  19  71 S15       30.05F WCI  16
YORK           CLOUDY    27  21  80 S13       30.04F WCI  16
$$

NEZ011>018-030>034-042>045-101100-
NORTHEAST NEBRASKA

CITY           SKY/WX    TMP DP  RH WIND       PRES   REMARKS
NORFOLK        CLOUDY    27  20  75 S5        30.00F WCI  22
ALBION         CLOUDY    27  22  82 CALM      30.00F
BLAIR          CLOUDY    23  17  78 S9        30.07F WCI  13
COLUMBUS *     CLOUDY    27  12  54 S7        30.03F WCI  19
FREMONT        CLOUDY    23  16  74 SE5       30.08F WCI  17
$$

NEZ050>053-065>068-078-088>093-101100-
SOUTHEAST NEBRASKA

CITY           SKY/WX    TMP DP  RH WIND       PRES   REMARKS
LINCOLN        CLOUDY    27  16  63 S6        30.10F WCI  20
OMAHA EPPLEY   CLOUDY    23  16  74 S8        30.11F WCI  14
BEATRICE       CLOUDY    28  16  61 S8        30.10F WCI  19
FALLS CITY     CLOUDY    22  16  78 S7        30.14F WCI  13
NEBRASKA CITY  CLOUDY    23  18  82 SW5       30.13S WCI  17
$$

NEZ044-045-051>053-067-101100-
OMAHA AREA

CITY           SKY/WX    TMP DP  RH WIND       PRES   REMARKS
OMAHA EPPLEY   CLOUDY    23  16  74 S8        30.11F WCI  14
BLAIR          CLOUDY    23  17  78 S9        30.07F WCI  13
FREMONT        CLOUDY    23  16  74 SE5       30.08F WCI  17
OFFUTT AFB     CLOUDY    23  18  80 S7        30.11F WCI  15
WAHOO          CLOUDY    24  19  81 S8        30.08F WCI  15
$$



USA.gov is the U.S. government's official web portal to all federal, state and local government web resources and services.